Showing default

OPS 4682 (SNAPSHOT), 1314

Orbit data source: Space-Track

OPS 4682 (SNAPSHOT), 1314 is an American payload satellite in LEO that was launched on Sat, 03 Apr 1965 UTC via an ATLAS SLV-3 AGENA D launch vehicle from the Air Force Western Test Range (AFWTR). Payload-class satellites include a variety of spacecraft equipped with specific instruments for various scientific and technological missions. These include communications satellites like Starlink; space stations such as the ISS; scientific satellites like the Hubble; Earth observation satellites from companies like Planet Labs, Umbra, and HawkEye 360; GPS; miniature CubeSats for education and research; and military/defense satellites.

Loading next visibility...
Identifier
1314, 1965-027A
Orbit
LEO
Last TLE update
12 hours ago
Origin
Manufacturer
RCA/East Windsor
Mission
Defense Technology
Bus & Motor
SNAP 10 REACTOR, Unknown motor
Mass
2,386 kg wet, 422 kg dry
Launch date (UTC)
1965-04-03 (60 years ago)
Launch vehicle
ATLAS SLV-3 AGENA D
Launch site
Air Force Western Test Range (AFWTR)
Object type
Payload
Rocket body
Debris
Shape & HBR
Cone + Cyl, Unknown HBR
Radar Cross Section
14.538 m², Large (>1 m²)

Expand to show TLE details & history

TLE from 12 hours ago
0 OPS 4682 (SNAPSHOT)
1 01314U 65027A   25128.69691869  .00000027  00000-0  74932-4 0  9999
2 01314  90.2396 357.4502 0028564 265.4302 158.1925 12.91796222578803
Epoch: 2025-05-08T16:43Z
Definitive object data (Epoch: 2025-05-08T16:43:33.774Z)
Latitude
63.82401°
Longitude
-120.68925°
Altitude
1,325.821 km
Speed
7.191 km/s
True Right ascension
23h 47m 51s
True Declination
63° 41' 52"
Sunlit
Object was in daylight at TLE epoch
Visualization TLE readout
Latitude
-79.8221°
Longitude
-118.86504°
Altitude
1,301.514 km
Speed
7.215 km/s
Apparent Right ascension
00h 52m 38s
Apparent Declination
-61° 52' 22"
Sunlit
Object is in daylight
Visualization observer readout
Local Sidereal Time
13:08:27
Azimuth
175.041° S
Elevation
-67.912°
Doppler factor
1
Orbital elements
Apogee altitude
1,313.446 km
Perigee altitude
1,269.631 km
Semi-major axis
7,669.676 km
Eccentricity
0.0028564
Inclination
90.2396°
RAAN
357.4502°
Arg. of periapsis
265.4302°
True anomaly
158.31369°
Mean anomaly
158.1925°
Eccentric anomaly
158.25314°
Mean motion
3.2313 °/min
BSTAR
0.000074932
Orbital period
111.41 mins
Loading maneuver chart data...
Loading SW <> Apogee altitude chart data...
Loading historical data...
Loading historical data...
Loading historical data...
Loading historical data...
Loading historical data...
Loading historical data...
Loading historical data...

OPS 4682 (SNAPSHOT) Visibility forecast

Observer location: undefined°, undefined°

Span
Click to sort rows by Start time (UTC) header in descending order
Start Az.
Max El. time (UTC)
Max El. Az.
Max El.
End time (UTC)
End Az.
14 mins2025-05-09 14:47:51.749Z149.045° SSE2025-05-09 14:54:51.749Z80.095° E36.397°2025-05-09 15:01:51.749Z9.896° NNE
12 mins2025-05-09 16:40:51.749Z222.404° SW2025-05-09 16:45:51.749Z271.922° WNW28.463°2025-05-09 16:52:51.749Z338.33° N
11 mins2025-05-10 02:29:51.749Z28.912° NE2025-05-10 02:34:51.749Z83.203° E29.816°2025-05-10 02:40:51.749Z143.006° SSE
12 mins2025-05-10 04:20:51.749Z343.163° N2025-05-10 04:25:51.749Z286.883° WNW35.033°2025-05-10 04:32:51.749Z214.021° SW
|